Overview Statistics Trail Chart Weather Telemetry Raw packets
 

This is the latest recevied weather packets stored in our database for station/object KJ7HSW. If no packets are shown the sender has not sent any weather packets the latest 10 day(s).

<< 16 17 18 19 20 21 22 >>
Time Temp. Humidity Pressure Rain* Wind** Luminosity Snow
1788489444 15.56° C 75% 1010.3 hPa 0 mm - 5 W/m² -
1788489140 15.56° C 74% 1010.2 hPa 0 mm - 7 W/m² -
1788488839 15.56° C 73% 1010.2 hPa 0 mm - 9 W/m² -
1788488536 15.56° C 74% 1010.2 hPa 0 mm - 12 W/m² -
1788488232 15.56° C 73% 1010 hPa 0 mm - 17 W/m² -
1788487927 15.56° C 75% 1010 hPa 0 mm - 17 W/m² -
1788487623 15.56° C 75% 1010 hPa 0 mm - 21 W/m² -
1788487322 15.56° C 76% 1009.9 hPa 0 mm - 32 W/m² -
1788487020 15.56° C 77% 1009.9 hPa 0 mm - 34 W/m² -
1788486715 15.56° C 76% 1009.9 hPa 0 mm - 37 W/m² -
1788486414 15.56° C 76% 1009.9 hPa 0 mm - 40 W/m² -
1788486109 16.11° C 73% 1009.8 hPa 0 mm - 33 W/m² -
1788485806 16.11° C 70% 1009.9 hPa 0 mm - 30 W/m² -
1788485501 16.11° C 71% 1009.8 hPa 0 mm - 32 W/m² -
1788485197 16.11° C 74% 1009.8 hPa 0 mm - 35 W/m² -
1788484896 16.67° C 72% 1009.7 hPa 0 mm - 36 W/m² -
1788484595 16.67° C 67% 1009.8 hPa 0 mm - 37 W/m² -
1788484291 17.78° C 65% 1009.7 hPa 0 mm - 38 W/m² -
1788483987 18.33° C 60% 1009.6 hPa 0 mm - 41 W/m² -
1788483683 18.89° C 54% 1009.6 hPa 0 mm - 40 W/m² -
1788483378 18.89° C 52% 1009.7 hPa 0 mm - 44 W/m² -
1788483073 19.44° C 52% 1009.5 hPa 0 mm - 47 W/m² -
1788482769 19.44° C 50% 1009.6 hPa 0 mm - 47 W/m² -
1788482469 19.44° C 51% 1009.6 hPa 0 mm - 49 W/m² -
1788482165 19.44° C 50% 1009.7 hPa 0 mm - 68 W/m² -

* Rain latest hour (hover to see other rain measurements)
** Current wind speed in m/s (hover to see current wind gust speed)